Regional Weather Roundup
Issued by NWS Cleveland, OH

Home | Current Version | Previous Version | Graphics & Text | Print | Product List | Glossary On
Versions: 1 2 3 4 5 6 7 8 9 10 11 12 13 14 15 16 17 18 19 20 21 22 23 24 25 26 27 28 29 30 31 32 33 34 35 36 37 38 39 40 41 42 43 44 45 46 47 48 49 50
000
ASUS41 KCLE 240610
RWRCLE
OHIO REGIONAL WEATHER ROUNDUP
NATIONAL WEATHER SERVICE WILMINGTON, OH
200 AM EDT THU APR 24 2014

NOTE: "FAIR" INDICATES FEW OR NO CLOUDS BELOW 12,000 FEET WITH NO
SIGNIFICANT WEATHER AND/OR OBSTRUCTIONS TO VISIBILITY.

OHZ001>008-015>018-024>027-034-035-043-044-240700-
   NORTHWEST OHIO

CITY           SKY/WX    TMP DP  RH WIND       PRES   REMARKS
DEFIANCE       MOCLDY    48  34  58 E7        30.10S
FINDLAY        FAIR      45  31  58 SE7       30.09F
TOLEDO EXPRESS FAIR      45  29  53 S3        30.10F
TOLEDO METCALF FAIR      45  30  55 SE6       30.11F
LIMA           FAIR      46  32  58 SE8       30.09S
$$

OHZ009>014-019>023-028>033-038-089-240700-
   NORTHEAST OHIO

CITY           SKY/WX    TMP DP  RH WIND       PRES   REMARKS
CLE-HOPKINS    MOCLDY    40  27  59 CALM      30.15F
CLE-LAKEFRONT  FAIR      41  22  46 NE7       30.12S
CUY CO. ARPT   NOT AVBL
LORAIN-ELYRIA  FAIR      38  30  73 CALM      30.12F
ASHTABULA      FAIR      28  20  71 CALM      30.13R
AKRON-CANTON   FAIR      36  25  64 CALM      30.10F
WOOSTER        FAIR      30  26  85 CALM      30.11F
MANSFIELD      FAIR      38  27  64 SE5       30.10F
YOUNGSTOWN     FAIR      31  19  61 W3        30.11R
$$

OHZ042-051>053-060>062-070>072-077>081-240700-
  SOUTHWEST OHIO

CITY           SKY/WX    TMP DP  RH WIND       PRES   REMARKS
CINC-COVINGTON CLOUDY    52  34  50 E13       30.06F
CINC-LUNKEN    FAIR      48  38  68 N6        30.09F
HAMILTON       MOCLDY    50  36  58 E10       30.08F
DAYTON         CLOUDY    48  32  53 SE10      30.09F
WRIGHT-PAT AFB CLOUDY    46  32  58 E2        30.09F
DAYTON GENERAL FAIR      47  34  60 E9        30.08F
WILMINGTON     FAIR      43  33  68 E7        30.10R
$$

OHZ036-037-039>041-045>050-054>059-063>069-073>076-082>088-240700-
  CENTRAL AND SOUTHEAST OHIO

CITY           SKY/WX    TMP DP  RH WIND       PRES   REMARKS
COLUMBUS       CLOUDY    45  28  51 CALM      30.11R
OSU AIRPORT    FAIR      42  32  67 E5        30.11R
BOLTON FIELD   FAIR      43  32  65 E3        30.11S
RICKENBACK AFB FAIR      42  30  63 NE5       30.10S
NEWARK         FAIR      37  29  72 N3        30.11S
MARION         FAIR      41  31  67 E8        30.10F
LANCASTER      FAIR      41  31  67 E5        30.11S
ZANESVILLE     FAIR      38  28  67 NE3       30.12S
NEW PHILLY     FAIR      32  26  78 CALM      30.13F
$$



USA.gov is the U.S. government's official web portal to all federal, state and local government web resources and services.